TimeEST,TemperatureF,Dew PointF,Humidity,Sea Level PressureIn,VisibilityMPH,Wind Direction,Wind SpeedMPH,Gust SpeedMPH,PrecipitationIn,Events,Conditions,WindDirDegrees,DateUTC
12:53 AM,3.9,-0.9,80,30.14,9.0,Calm,Calm,-,N/A,,Clear,0,2013-01-24 05:53:00
1:53 AM,3.0,-2.0,80,30.13,8.0,Calm,Calm,-,N/A,,Clear,0,2013-01-24 06:53:00
2:53 AM,3.0,-2.0,80,30.12,7.0,Calm,Calm,-,N/A,,Partly Cloudy,0,2013-01-24 07:53:00
3:53 AM,3.9,-0.9,80,30.12,10.0,Calm,Calm,-,N/A,,Mostly Cloudy,0,2013-01-24 08:53:00
4:53 AM,3.9,-0.9,80,30.13,8.0,Calm,Calm,-,N/A,,Mostly Cloudy,0,2013-01-24 09:53:00
5:53 AM,3.0,-2.0,80,30.16,8.0,Calm,Calm,-,N/A,,Clear,0,2013-01-24 10:53:00
6:53 AM,3.0,-2.9,76,30.18,8.0,Calm,Calm,-,N/A,,Clear,0,2013-01-24 11:53:00
7:53 AM,3.0,-0.9,84,30.20,4.0,Calm,Calm,-,N/A,,Clear,0,2013-01-24 12:53:00
8:53 AM,8.1,3.0,80,30.22,8.0,Calm,Calm,-,N/A,,Clear,0,2013-01-24 13:53:00
9:53 AM,12.0,3.9,70,30.24,10.0,Calm,Calm,-,N/A,,Clear,0,2013-01-24 14:53:00
10:53 AM,18.0,-0.0,45,30.25,10.0,Variable,5.8,-,N/A,,Clear,0,2013-01-24 15:53:00
11:53 AM,19.0,-2.9,38,30.25,10.0,NW,11.5,19.6,N/A,,Clear,310,2013-01-24 16:53:00
12:53 PM,21.0,-4.0,33,30.25,10.0,NNW,11.5,27.6,N/A,,Scattered Clouds,330,2013-01-24 17:53:00
1:53 PM,19.9,-4.0,35,30.26,10.0,North,13.8,24.2,N/A,,Clear,360,2013-01-24 18:53:00
2:53 PM,21.0,-2.9,35,30.28,10.0,North,9.2,17.3,N/A,,Partly Cloudy,360,2013-01-24 19:53:00
3:53 PM,19.9,-4.0,35,30.30,10.0,Variable,4.6,24.2,N/A,,Clear,0,2013-01-24 20:53:00
4:53 PM,19.0,-4.0,36,30.32,10.0,NW,17.3,27.6,N/A,,Clear,320,2013-01-24 21:53:00
5:53 PM,17.1,-4.0,39,30.37,10.0,WNW,12.7,23.0,N/A,,Clear,300,2013-01-24 22:53:00
6:53 PM,15.1,-2.9,45,30.40,10.0,NW,5.8,-,N/A,,Clear,320,2013-01-24 23:53:00
7:53 PM,15.1,-0.9,49,30.40,10.0,Variable,4.6,-,N/A,,Clear,0,2013-01-25 00:53:00
8:53 PM,14.0,-0.9,52,30.40,10.0,WNW,9.2,16.1,N/A,,Clear,290,2013-01-25 01:53:00
9:53 PM,14.0,-2.0,49,30.40,10.0,NW,9.2,-,N/A,,Clear,320,2013-01-25 02:53:00
10:53 PM,12.9,-4.0,47,30.41,10.0,NW,8.1,16.1,N/A,,Clear,310,2013-01-25 03:53:00
11:53 PM,12.0,-2.9,51,30.42,10.0,WNW,8.1,-,N/A,,Clear,300,2013-01-25 04:53:00